IRIDIUM 113

Last updated on Tue Sep 22 2026 00:03:20 GMT+0000 (Coordinated Universal Time)

1 42803U 17039A 26264.03253667 .00000028 00000+0 30883-5 0 9995 2 42803 86.3917 282.1127 0002339 92.1115 268.0349 14.34217599484926
UTC large
Height (km)
Speed (km/s)
/
Latitude / Longitude
Inclination (degrees)
Orbital Period (minutes)
Azimuth
Elevation
Range (km)
Doppler Factor

Next 0 passes for location: London (51.5072 / 0.1276)

No passes found over London.
IRIDIUM 113